DW6386 Weather Reports


Display with metric or nautical units.
time (UTC)temp
F
wind
direction
speed
MPH
gust
MPH
rain 1hr
in
rain 24hr
in
rain mn
in
humidity
%
barometer
mb
20260507051538 56 249 0.0 4.0 0.05 1.02 0.05 97 1011.5
20260507050037 56 174 0.0 5.0 0.05 1.02 0.05 97 1011.7
20260507044537 57 137 0.0 2.0 0.03 1.00 0.03 98 1011.3
20260507043031 57 131 0.0 0.0 0.02 0.99 0.02 98 1011.2
20260507041530 57 131 0.0 0.0 0.00 0.97 0.00 98 1011.1
20260507040027 57 131 0.0 0.0 0.00 0.97 0.97 98 1011.1
20260507034530 57 131 0.0 0.0 0.00 0.97 0.97 98 1010.9
20260507033032 57 150 0.0 0.0 0.01 0.97 0.97 98 1010.8
20260507031532 58 172 0.0 0.0 0.02 0.97 0.97 98 1010.9
20260507030024 58 172 0.0 0.0 0.05 0.97 0.97 98 1011.3
20260507024524 58 173 0.0 0.0 0.05 0.97 0.97 98 1011.3
20260507023023 58 144 0.0 0.0 0.04 0.96 0.96 98 1011.9
20260507021522 58 145 0.0 0.0 0.02 0.94 0.94 97 1011.1
20260507020024 58 227 0.0 0.0 0.00 0.92 0.92 97 1011.3
20260507014522 58 131 0.0 0.0 0.00 0.92 0.92 97 1011.2
20260507013018 58 113 0.0 0.0 0.00 0.92 0.92 97 1010.7
20260507011528 59 158 0.0 1.0 0.00 0.92 0.92 97 1011.1
20260507010018 59 110 0.0 3.0 0.00 0.92 0.92 96 1011.1
20260507004512 60 134 0.0 4.0 0.00 0.92 0.92 96 1011.0
20260507003008 61 113 0.0 2.0 0.00 0.92 0.92 96 1010.6
20260507001509 63 161 0.0 2.0 0.01 0.92 0.92 96 1011.5
20260507000006 65 124 0.0 3.0 0.03 0.92 0.92 96 1011.1
20260506234506 66 100 0.0 0.0 0.07 0.92 0.92 97 1009.9
20260506233006 66 94 0.0 3.0 0.10 0.92 0.92 97 1009.9
20260506231505 66 63 0.0 3.0 0.10 0.91 0.91 97 1009.8
20260506230006 67 65 1.0 2.0 0.09 0.89 0.89 97 1010.2
20260506224503 67 52 0.0 2.0 0.05 0.85 0.85 97 1009.7
20260506223003 67 145 0.0 0.0 0.05 0.82 0.82 97 1009.3
20260506221503 67 67 1.0 3.0 0.04 0.81 0.81 97 1010.2
20260506220002 67 72 0.0 1.0 0.04 0.80 0.80 97 1009.6
20260506214501 67 71 0.0 4.0 0.04 0.80 0.80 97 1009.5
20260506213106 67 85 1.0 4.0 0.01 0.77 0.77 97 1009.4
20260506211600 67 50 0.0 2.0 0.03 0.77 0.77 97 1009.4
20260506210059 67 46 1.0 4.0 0.03 0.76 0.76 97 1009.6
20260506204600 67 51 2.0 6.0 0.04 0.76 0.76 97 1009.4
20260506203058 67 84 2.0 5.0 0.06 0.76 0.76 96 1008.8
20260506201558 67 312 1.0 6.0 0.04 0.74 0.74 96 1008.8
20260506200104 67 72 0.0 3.0 0.05 0.73 0.73 96 1009.6
20260506194557 67 73 0.0 5.0 0.04 0.72 0.72 96 1010.2
20260506193057 67 160 0.0 1.0 0.02 0.70 0.70 95 1010.0
20260506191556 67 55 1.0 6.0 0.02 0.70 0.70 95 1010.4
20260506190058 67 51 3.0 8.0 0.00 0.68 0.68 94 1010.3
20260506184555 68 4 1.0 7.0 0.00 0.68 0.68 93 1009.7
20260506183054 68 33 2.0 7.0 0.00 0.68 0.68 93 1010.7
20260506181557 68 65 2.0 7.0 0.00 0.68 0.68 91 1010.7
20260506180053 69 51 2.0 9.0 0.00 0.68 0.68 91 1010.7
20260506174555 69 37 3.0 8.0 0.00 0.68 0.68 91 1010.7
20260506173123 69 45 2.0 10.0 0.00 0.68 0.68 93 1010.8
20260506171554 68 52 4.0 10.0 0.00 0.68 0.68 93 1010.7
20260506170047 67 75 0.0 5.0 0.00 0.68 0.68 96 1010.3
20260506164554 66 74 2.0 8.0 0.00 0.68 0.68 96 1010.4
20260506163049 65 51 1.0 8.0 0.00 0.68 0.68 97 1010.4
20260506161549 65 51 2.0 7.0 0.00 0.68 0.68 97 1010.3
20260506160046 64 41 0.0 9.0 0.00 0.68 0.68 97 1010.3
20260506154549 64 58 0.0 4.0 0.00 0.68 0.68 97 1010.3
20260506153047 64 319 0.0 0.0 0.02 0.68 0.68 98 1010.2
20260506151542 63 72 0.0 8.0 0.05 0.68 0.68 97 1010.7
20260506150043 63 43 2.0 8.0 0.06 0.68 0.68 97 1010.8
20260506144543 63 71 0.0 4.0 0.09 0.68 0.68 98 1010.8
20260506143043 63 51 0.0 5.0 0.13 0.66 0.66 97 1011.0
20260506141540 63 39 2.0 6.0 0.15 0.63 0.63 97 1011.3
20260506140038 62 70 1.0 4.0 0.21 0.62 0.62 97 1011.2
20260506134536 62 16 3.0 6.0 0.25 0.59 0.59 97 1010.4
20260506133035 62 77 2.0 8.0 0.27 0.53 0.53 97 1010.6
20260506131545 62 72 3.0 9.0 0.27 0.47 0.47 96 1010.8
20260506130042 62 91 0.0 6.0 0.31 0.41 0.41 96 1010.3
20260506124532 62 28 1.0 5.0 0.27 0.33 0.33 96 1010.2
20260506123031 62 51 2.0 6.0 0.24 0.25 0.25 95 1010.4
20260506121529 62 25 0.0 7.0 0.19 0.19 0.19 94 1010.2
20260506120028 62 52 0.0 3.0 0.10 0.10 0.10 92 1010.1
20260506114523 62 79 0.0 2.0 0.06 0.06 0.06 90 1010.0
20260506113020 63 68 1.0 4.0 0.01 0.01 0.01 88 1009.6
20260506111521 64 99 0.0 0.0 0.00 0.00 0.00 85 1009.2
20260506110017 64 94 0.0 4.0 0.00 0.00 0.00 83 1009.0
20260506104512 65 52 0.0 10.0 0.00 0.00 0.00 82 1008.8
20260506103011 65 68 2.0 10.0 0.00 0.00 0.00 80 1008.7
20260506101518 66 26 2.0 6.0 0.00 0.00 0.00 77 1008.3
20260506100004 67 65 2.0 9.0 0.00 0.00 0.00 75 1008.4
20260506094505 67 46 4.0 9.0 0.00 0.00 0.00 74 1008.5
20260506093002 67 72 2.0 7.0 0.00 0.00 0.00 72 1007.8
20260506091601 67 30 3.0 11.0 0.00 0.00 0.00 71 1008.4
20260506090059 67 51 2.0 7.0 0.00 0.00 0.00 71 1008.4
20260506084622 67 46 4.0 8.0 0.00 0.00 0.00 70 1008.2
20260506083057 67 30 2.0 3.0 0.00 0.00 0.00 69 1008.0
20260506081600 67 68 0.0 3.0 0.00 0.00 0.00 68 1008.0
20260506073052 67 39 2.0 6.0 0.00 0.00 0.00 65 1008.0
20260506071550 68 63 1.0 6.0 0.00 0.00 0.00 65 1007.9
20260506061543 68 68 0.0 4.0 0.00 0.00 0.00 64 1008.5